Weather in Cary

United States     35°46′55″N   78°46′50″W
temp.,
°C
wind,
m/s
gust,
m/s
humid.,
%
clouds,
%
prec.,
mm/h
press.,
hPa
HPBL,
m
26 may, thu
thu2623:00+17ne2487100 0.0 1025434
02:00+16ne348816 0.0 1024268
05:00+15ene26959 0.0 1022180
08:00+17ene128640 0.0 1023283
11:00+24ese116223 0.0 1023820
14:00+28sse335239 0.0 10201507
17:00+29sse374882 0.0 10182041
20:00+25sse41064100 0.0 1016511
27 may, fri
fri2723:00+23s51276100 0.0 1017633
02:00+21s4129089 0.0 1016697
05:00+21s41497100 1.0 1015753
08:00+21s41097100 3.4 1015667
11:00+21s41291100 3.1 1014699
14:00+22s51290100 7.6 1012774
17:00+22ssw41093100 8.1 1010693
20:00+20s51291100 10.2 1010384
28 may, sat
sat2823:00+18s3109826 0.5 1010221
02:00+18wsw39960 0.8 1009298
05:00+16nw27930 0.0 1009176
08:00+17nw37860 0.0 1012238
11:00+23nw35510 0.0 10121212
14:00+26wnw464315 0.0 10112002
17:00+26nw454258 0.0 10112113
20:00+22w22650 0.0 101341
29 may, sun
sun2923:00+19nnw24710 0.0 101576
02:00+18nne26730 0.0 1015130
05:00+16nne23770 0.0 101653
08:00+19ne23680 0.0 1018192
11:00+26se12493 0.0 1019792
14:00+29s23405 0.0 10171900
17:00+30s33385 0.0 10172155
20:00+25se34565 0.0 101781
30 may, mon
mon3023:00+22se39635 0.0 1019206
02:00+20ssw38841 0.0 1020213
05:00+19ssw27890 0.0 1020183
08:00+22sw35765 0.0 1022252
11:00+28wsw34520 0.0 10221030
14:00+32sw23390 0.0 10202022
17:00+33sw22364 0.0 10192217
20:00+27w11590 0.0 101915